Regional Weather Roundup
Issued by NWS

Home | Current Version | Previous Version | Graphics & Text | Print | Product List | Glossary Off
Versions: 1 2 3 4 5 6 7 8 9 10 11 12 13 14 15 16 17 18 19 20 21 22 23 24 25 26 27 28 29 30 31 32 33 34 35 36 37 38 39 40 41 42 43 44 45 46 47 48 49 50

000
ASUS43 KFSD 281110
RWRSD

WEATHER ROUNDUP FOR SOUTH DAKOTA
NATIONAL WEATHER SERVICE SIOUX FALLS SD
600 AM CDT TUE APR 28 2015

NOTE: "FAIR" INDICATES FEW OR NO CLOUDS BELOW 12,000 FEET WITH NO
SIGNIFICANT WEATHER AND/OR OBSTRUCTIONS TO VISIBILITY.


SDZ001>005-009-010-012>017-281200-
NORTHWEST AND NORTH CENTRAL SOUTH DAKOTA

CITY           SKY/WX    TMP DP  RH WIND       PRES   REMARKS
BUFFALO          N/A     34  32  92 W5        30.26F WCI  30
FAITH            N/A     37  32  82 W8        30.33R
MOBRIDGE       CLEAR     35  33  92 N6        30.31R
$$

SDZ012>016-024>037-041>051-057-063-072>074-281200-
SOUTHWEST AND SOUTH CENTRAL SOUTH DAKOTA

CITY           SKY/WX    TMP DP  RH WIND       PRES   REMARKS
RAPID CTY ARPT CLEAR     31  30  96 NW6       30.33F WCI  25
PIERRE         CLOUDY    44  41  89 W7        30.31S
CUSTER         CLEAR     35  34  96 W6        30.32S
ELLSWORTH AFB  MOCLDY    33  31  94 W5        30.33S WCI  28
PHILIP         CLEAR     33  31  92 W8        30.34S WCI  26
PINE RIDGE     CLOUDY    44  41  89 CALM      30.34S
SPEARFISH      CLOUDY    36  36 100 CALM      30.34S
WINNER         CLOUDY    45  40  82 NW7       30.31S
$$

SDZ004>011-016>023-039-040-281200-
NORTHEAST SOUTH DAKOTA

CITY           SKY/WX    TMP DP  RH WIND       PRES   REMARKS
ABERDEEN       MOCLDY    46  42  86 N8        30.29R
WATERTOWN      CLOUDY    48  42  80 N13       30.24R
BROOKINGS      MOCLDY    45  39  81 NW3       30.22S
SISSETON         N/A     46  46 100 N14       30.25R
$$

SDZ017-020-022-023-036>040-048>070-281200-
SOUTHEAST SOUTH DAKOTA

CITY           SKY/WX    TMP DP  RH WIND       PRES   REMARKS
SIOUX FALLS    PTCLDY    39  31  72 NE3       30.21R
HURON          CLOUDY    47  43  86 NW14      30.27S
CHAMBERLAIN    CLOUDY    46  42  85 NW12      30.30S
MITCHELL       LGT RAIN  48  44  86 NW18      30.27R
YANKTON        CLEAR     43  39  87 NW15      30.22S
$$

ABBREVIATIONS USED IN REMARKS
   TC - TEMPERATURE IN CELSIUS
  WCI - WIND CHILL INDEX
   HX - HEAT INDEX
  VSB - VISIBILITY



USA.gov is the U.S. government's official web portal to all federal, state and local government web resources and services.